Location: Aalen
(48.8330°N, 10.1000°E)
Time: 03:23:26
(UTC+02:00)

Transit 2A - Pass Details

Date: 06 August 2021
Orbit: 594 x 964 km, 66.7° (Epoch: 21 September)

Event Time Altitude Azimuth Distance (km) Brightness Sun altitude
Rises 09:34:25 0° 290° (WNW) 2,967 8.5 33.5°
Reaches altitude 10° 09:38:11 10° 322° (NW) 2,135 8.0 34.1°
Maximum altitude 09:40:04 12° 345° (NNW) 2,039 8.1 34.4°
Drops below altitude 10° 09:42:01 10° 8° (N) 2,224 8.4 34.7°
Sets 09:46:10 0° 39° (NE) 3,253 9.5 35.3°
